Current weather by "City, St" or "zip code"  
 

Current Conditions: Mount Shasta, CA

Fair


39.0 F

Last Updated on Oct 31 2020, 2:56 am PDT
Humidity: 65%
Wind Speed: E 3.5 mph
Barometer 30.19 in
Dewpoint: 28.0 F
Visibility: 10.00 mi
Precip: --
Heat Index: NA
Wind Chill: NA
Current conditions at:

Mount Shasta, CA (KMHS)

Lat: 41.31494 Lon: 122.31702

Local Radar Image active severe weather and emergency alerts image image weather storm and storm spotter reports image weather observation monitoring service image
Local
Radar
Active
Alerts
Storm Reports Obs
Monitoring

Sign-up For Email & Text Message Weather Alert Notification Services



Advertise Here

Observation History for Mount Shasta, CA


Time Wind
(mph)
Vis
(mi)
Weather Precip (in) Temperature (F) Relative
Humidity
Wind
Chill
(F)
Heat
Index
(F)
Pressure
Air Dwpt altimeter
(in)
sea level
(mb)
Rmks
2:56 am PDT E 3.5 10.00 Fair -- 39.0 28.0 65% NA NA 30.19 1023.0
1:56 am PDT N 0.0 10.00 Fair -- 40.0 28.0 63% NA NA 30.18 1022.4
12:56 am PDT N 0.0 10.00 Fair -- 41.0 27.0 57% NA NA 30.17 1022.4
11:56 pm PDT N 0.0 10.00 Fair -- 45.0 27.0 49% NA NA 30.17 1022.2
10:56 pm PDT N 0.0 10.00 Fair -- 51.0 28.0 41% NA NA 30.17 1022.2
9:56 pm PDT 3.5 10.00 Fair -- 47.0 25.0 42% NA NA 30.15 1022.6
8:56 pm PDT E 3.5 9.00 Fair -- 45.0 26.1 48% NA NA 30.13 1022.8
7:56 pm PDT N 0.0 9.00 Fair -- 48.0 27.0 44% NA NA 30.12 1022.4
6:56 pm PDT N 0.0 10.00 Fair -- 51.0 28.9 43% NA NA 30.11 1021.6
5:56 pm PDT N 0.0 10.00 Fair -- 60.0 30.0 32% NA NA 30.08 1020.3
4:56 pm PDT N 0.0 10.00 Fair -- 68.0 25.0 20% NA NA 30.08 1019.5
3:56 pm PDT N 0.0 10.00 Fair -- 72.0 25.0 17% NA NA 30.08 1019.2
2:56 pm PDT N 0.0 10.00 Fair -- 72.0 25.0 17% NA NA 30.08 1019.2
1:56 pm PDT N 0.0 10.00 Fair -- 73.0 26.1 17% NA NA 30.09 1019.5
12:56 pm PDT N 0.0 10.00 Fair -- 69.0 25.0 19% NA NA 30.12 1020.7
11:56 am PDT N 0.0 10.00 Fair -- 66.0 25.0 21% NA NA 30.14 1021.4
10:56 am PDT N 0.0 10.00 Fair -- 61.0 25.0 25% NA NA 30.15 1022.3
9:56 am PDT N 0.0 10.00 Fair -- 49.0 28.0 44% NA NA 30.16 1023.3
8:56 am PDT N 0.0 10.00 Fair -- 37.0 23.0 57% NA NA 30.16 1023.8
7:56 am PDT N 0.0 10.00 Fair -- 33.0 21.0 61% NA NA 30.14 1023.3
6:56 am PDT NE 3.5 10.00 Fair -- 34.0 19.9 56% NA NA 30.14 1022.5
5:56 am PDT N 0.0 10.00 Fair -- 33.0 19.9 58% NA NA 30.14 1022.0
4:56 am PDT N 0.0 10.00 Fair -- 34.0 19.9 56% NA NA 30.13 1021.3
3:56 am PDT N 0.0 10.00 Fair -- 34.0 19.9 56% NA NA 30.13 1021.0

Regional Weather Observation


Mount Shasta, CA (KMHS)

Fair
39.0 F

Trinity Center, CA (KO86)

Mostly Cloudy
50.0 F

Weaverville, CA (KO54)

Fair
77.0 F

Rogue Valley International Airport, OR (KMFR)

Fair
50.0 F

Redding Municipal Airport, CA (KRDD)

Fair
47.0 F

Klamath Falls International Airport, OR (KLMT)

Fair
30.0 F